Location: Altamira
(10.5079°N, 66.8544°W)
Time: 16:42:25
(UTC+00:00)

Cosmos 2263 Rocket - Pass Details

Date: 13 December 2025
Orbit: 821 x 849 km, 71.0° (Epoch: 13 January)

Event Time Altitude Azimuth Distance (km) Brightness Sun altitude
Rises 23:01:12 0° 351° (N) 3,398 5.2 -13.1°
Reaches altitude 10° 23:03:42 10° 356° (N) 2,465 4.4 -13.6°
Maximum altitude 23:09:14 55° 73° (ENE) 1,006 2.2 -14.9°
Drops below altitude 10° 23:14:46 10° 151° (SSE) 2,463 4.5 -16.2°
Sets 23:17:15 0° 155° (SSE) 3,395 5.3 -16.7°
